IWG007 LEZL-LEVC

Flight info

Callsign IWG007
Flight time 0h 54m
Altitude 34000
Route BUDIT M445 ETURA T252 XEBAR M985 ASTRO
Aircraft A20N/M-SDE2E3FGHIJ1RWXY/LB1

Departure

Time 2026-04-27 11:29
Airport Seville Airport (LEZL)

Arrival

Time 2026-04-27 12:23
Airport Valencia Airport (LEVC)
Time Latitude Longitude Altitude Speed Heading
2026-04-27 11:21 37.42266 -5.89826 92 ft 2 kts 311°
2026-04-27 11:21 37.42257 -5.89808 94 ft 2 kts 287°
2026-04-27 11:21 37.42254 -5.89788 93 ft 2 kts 261°
2026-04-27 11:22 37.42259 -5.89768 94 ft 2 kts 239°
2026-04-27 11:22 37.42262 -5.89762 94 ft 0 kts 229°
2026-04-27 11:24 37.42259 -5.89767 93 ft 2 kts 229°
2026-04-27 11:24 37.42241 -5.89792 93 ft 6 kts 228°
2026-04-27 11:25 37.42204 -5.89835 93 ft 9 kts 220°
2026-04-27 11:25 37.42150 -5.89896 93 ft 12 kts 225°
2026-04-27 11:25 37.42086 -5.89985 93 ft 15 kts 227°
2026-04-27 11:25 37.42006 -5.90093 94 ft 18 kts 227°
2026-04-27 11:26 37.41982 -5.90245 95 ft 20 kts 269°
2026-04-27 11:26 37.41980 -5.90433 94 ft 23 kts 270°
2026-04-27 11:26 37.41982 -5.90644 92 ft 25 kts 271°
2026-04-27 11:26 37.41981 -5.90870 91 ft 27 kts 269°
2026-04-27 11:27 37.41978 -5.91118 89 ft 29 kts 270°
2026-04-27 11:27 37.41920 -5.91312 90 ft 23 kts 191°
2026-04-27 11:27 37.41817 -5.91200 93 ft 15 kts 127°
2026-04-27 11:27 37.41789 -5.91127 91 ft 0 kts 91°
2026-04-27 11:28 37.41789 -5.91080 92 ft 27 kts 90°
2026-04-27 11:28 37.41795 -5.90540 96 ft 93 kts 89°
2026-04-27 11:28 37.41794 -5.89512 99 ft 142 kts 90°
2026-04-27 11:28 37.41807 -5.88158 432 ft 158 kts 88°
2026-04-27 11:29 37.41829 -5.86722 901 ft 172 kts 89°
2026-04-27 11:29 37.41862 -5.85157 1395 ft 184 kts 90°
2026-04-27 11:29 37.41885 -5.83501 1926 ft 197 kts 89°
2026-04-27 11:29 37.42084 -5.81722 2474 ft 214 kts 78°
2026-04-27 11:30 37.42395 -5.79854 3165 ft 226 kts 83°
2026-04-27 11:30 37.42652 -5.77792 3737 ft 249 kts 84°
2026-04-27 11:30 37.43047 -5.75605 4502 ft 263 kts 75°
2026-04-27 11:30 37.43745 -5.73476 5486 ft 267 kts 70°
2026-04-27 11:31 37.44486 -5.71333 6563 ft 269 kts 69°
2026-04-27 11:31 37.45251 -5.69145 7446 ft 276 kts 69°
2026-04-27 11:31 37.46038 -5.66907 8303 ft 283 kts 69°
2026-04-27 11:31 37.46842 -5.64613 9188 ft 290 kts 69°
2026-04-27 11:32 37.47664 -5.62258 10058 ft 296 kts 69°
2026-04-27 11:32 37.48400 -5.60149 10505 ft 313 kts 69°
2026-04-27 11:32 37.49293 -5.57579 10832 ft 336 kts 69°
2026-04-27 11:32 37.50257 -5.54815 11337 ft 350 kts 68°
2026-04-27 11:33 37.51246 -5.51992 12159 ft 354 kts 68°
2026-04-27 11:33 37.52246 -5.49131 12972 ft 358 kts 68°
2026-04-27 11:33 37.53254 -5.46236 13772 ft 363 kts 68°
2026-04-27 11:33 37.54275 -5.43299 14520 ft 366 kts 68°
2026-04-27 11:34 37.55303 -5.40339 15254 ft 370 kts 68°
2026-04-27 11:34 37.56341 -5.37346 15979 ft 374 kts 68°
2026-04-27 11:34 37.57331 -5.34490 16643 ft 377 kts 68°
2026-04-27 11:34 37.58373 -5.31477 17346 ft 381 kts 68°
2026-04-27 11:35 37.59439 -5.28384 18054 ft 385 kts 69°
2026-04-27 11:35 37.60291 -5.25176 18675 ft 388 kts 77°
2026-04-27 11:35 37.60796 -5.21823 19264 ft 390 kts 84°
2026-04-27 11:35 37.61032 -5.18390 19840 ft 394 kts 86°
2026-04-27 11:36 37.61265 -5.14972 20422 ft 397 kts 86°
2026-04-27 11:36 37.61511 -5.11478 21019 ft 401 kts 86°
2026-04-27 11:36 37.61760 -5.07943 21593 ft 405 kts 86°
2026-04-27 11:36 37.62011 -5.04380 22185 ft 409 kts 86°
2026-04-27 11:37 37.62259 -5.00819 22758 ft 412 kts 86°
2026-04-27 11:37 37.62511 -4.97177 23314 ft 416 kts 85°
2026-04-27 11:37 37.62761 -4.93539 23823 ft 420 kts 86°
2026-04-27 11:37 37.63011 -4.89888 24309 ft 422 kts 86°
2026-04-27 11:38 37.63264 -4.86174 24780 ft 425 kts 86°
2026-04-27 11:38 37.63517 -4.82437 25244 ft 428 kts 86°
2026-04-27 11:38 37.63767 -4.78723 25697 ft 431 kts 86°
2026-04-27 11:38 37.64022 -4.74927 26154 ft 434 kts 86°
2026-04-27 11:39 37.64275 -4.71120 26586 ft 437 kts 86°
2026-04-27 11:39 37.64444 -4.68578 26878 ft 439 kts 86°
2026-04-27 11:39 37.64767 -4.63689 27385 ft 443 kts 86°
2026-04-27 11:39 37.65024 -4.59786 27820 ft 445 kts 86°
2026-04-27 11:40 37.65278 -4.55907 28194 ft 448 kts 86°
2026-04-27 11:40 37.65449 -4.53294 28458 ft 449 kts 86°
2026-04-27 11:40 37.65704 -4.49363 28818 ft 452 kts 86°
2026-04-27 11:40 37.65962 -4.45380 29183 ft 455 kts 86°
2026-04-27 11:41 37.66220 -4.41373 29528 ft 457 kts 86°
2026-04-27 11:41 37.66475 -4.37398 29880 ft 460 kts 86°
2026-04-27 11:41 37.66705 -4.33777 30161 ft 462 kts 86°
2026-04-27 11:41 37.66971 -4.29569 30484 ft 464 kts 86°
2026-04-27 11:42 37.67227 -4.25489 30794 ft 466 kts 86°
2026-04-27 11:42 37.67484 -4.21392 31097 ft 468 kts 86°
2026-04-27 11:42 37.67723 -4.17543 31452 ft 468 kts 86°
2026-04-27 11:42 37.67977 -4.13431 31857 ft 467 kts 86°
2026-04-27 11:43 37.68226 -4.09388 32256 ft 466 kts 86°
2026-04-27 11:43 37.68477 -4.05286 32649 ft 466 kts 86°
2026-04-27 11:43 37.68722 -4.01256 33044 ft 465 kts 86°
2026-04-27 11:43 37.68969 -3.97168 33407 ft 464 kts 86°
2026-04-27 11:44 37.69214 -3.93092 33778 ft 464 kts 86°
2026-04-27 11:44 37.69455 -3.89066 33946 ft 463 kts 86°
2026-04-27 11:44 37.69935 -3.80944 34036 ft 462 kts 86°
2026-04-27 11:45 37.70407 -3.72871 34040 ft 462 kts 86°
2026-04-27 11:45 37.70864 -3.65003 34039 ft 462 kts 86°
2026-04-27 11:46 37.71326 -3.56932 34043 ft 463 kts 86°
2026-04-27 11:46 37.71783 -3.48815 34049 ft 463 kts 86°
2026-04-27 11:47 37.72233 -3.40721 34038 ft 463 kts 86°
2026-04-27 11:47 37.72678 -3.32637 34033 ft 462 kts 86°
2026-04-27 11:48 37.73108 -3.24743 34033 ft 463 kts 86°
2026-04-27 11:48 37.73543 -3.16637 34049 ft 465 kts 86°
2026-04-27 11:49 37.73975 -3.08486 34056 ft 466 kts 86°
2026-04-27 11:49 37.74402 -3.00321 34066 ft 467 kts 86°
2026-04-27 11:50 37.74824 -2.92146 34064 ft 467 kts 86°
2026-04-27 11:50 37.75389 -2.83934 34067 ft 467 kts 77°
2026-04-27 11:51 37.76359 -2.80010 34065 ft 466 kts 65°
2026-04-27 11:51 37.77912 -2.76472 34068 ft 464 kts 53°
2026-04-27 11:52 37.84296 -2.67692 34075 ft 463 kts 45°
2026-04-27 11:52 37.88752 -2.61781 34094 ft 463 kts 45°
2026-04-27 11:53 37.93197 -2.55864 34095 ft 464 kts 45°
2026-04-27 11:53 37.97634 -2.49948 34104 ft 464 kts 45°
2026-04-27 11:54 38.02101 -2.43980 34110 ft 464 kts 45°
2026-04-27 11:54 38.06534 -2.38051 34118 ft 463 kts 45°
2026-04-27 11:55 38.10957 -2.32119 34117 ft 463 kts 45°
2026-04-27 11:55 38.15374 -2.26189 34120 ft 463 kts 45°
2026-04-27 11:56 38.19904 -2.20811 34123 ft 459 kts 32°
2026-04-27 11:56 38.25619 -2.17407 34131 ft 453 kts 12°
2026-04-27 11:57 38.31731 -2.15543 34140 ft 453 kts 11°
2026-04-27 11:57 38.37695 -2.13711 34127 ft 451 kts 11°
2026-04-27 11:58 38.43769 -2.11845 34127 ft 450 kts 11°
2026-04-27 11:58 38.49812 -2.09738 34131 ft 454 kts 21°
2026-04-27 11:58 38.52594 -2.07787 34130 ft 458 kts 33°
2026-04-27 11:59 38.55015 -2.05104 34128 ft 461 kts 46°
2026-04-27 11:59 38.58941 -1.98613 34047 ft 462 kts 52°
2026-04-27 11:59 38.60837 -1.95289 33527 ft 461 kts 52°
2026-04-27 12:00 38.62745 -1.92028 32789 ft 463 kts 51°
2026-04-27 12:00 38.64591 -1.88944 32248 ft 461 kts 50°
2026-04-27 12:00 38.66565 -1.85684 31373 ft 465 kts 50°
2026-04-27 12:00 38.68438 -1.82609 30620 ft 467 kts 50°
2026-04-27 12:01 38.70416 -1.79363 30072 ft 461 kts 50°
2026-04-27 12:01 38.72385 -1.76130 29462 ft 456 kts 50°
2026-04-27 12:01 38.74307 -1.72970 28895 ft 450 kts 51°
2026-04-27 12:01 38.76219 -1.69820 28313 ft 445 kts 51°
2026-04-27 12:02 38.78116 -1.66695 27743 ft 441 kts 51°
2026-04-27 12:02 38.79990 -1.63601 27189 ft 436 kts 51°
2026-04-27 12:02 38.81821 -1.60575 26614 ft 433 kts 51°
2026-04-27 12:02 38.83662 -1.57531 26087 ft 429 kts 51°
2026-04-27 12:03 38.85489 -1.54507 25464 ft 427 kts 51°
2026-04-27 12:03 38.87302 -1.51504 24936 ft 424 kts 51°
2026-04-27 12:03 38.89106 -1.48513 24406 ft 421 kts 52°
2026-04-27 12:03 38.90869 -1.45588 23901 ft 417 kts 52°
2026-04-27 12:04 38.92656 -1.42622 23216 ft 417 kts 52°
2026-04-27 12:04 38.94422 -1.39687 22721 ft 411 kts 52°
2026-04-27 12:04 38.96165 -1.36785 22188 ft 407 kts 52°
2026-04-27 12:04 38.97868 -1.33950 21589 ft 404 kts 52°
2026-04-27 12:05 38.99590 -1.31080 21062 ft 401 kts 52°
2026-04-27 12:05 39.01287 -1.28249 20546 ft 396 kts 53°
2026-04-27 12:05 39.02952 -1.25470 20011 ft 394 kts 53°
2026-04-27 12:05 39.04620 -1.22682 19500 ft 391 kts 53°
2026-04-27 12:06 39.06285 -1.19897 18946 ft 388 kts 53°
2026-04-27 12:06 39.07929 -1.17145 18489 ft 384 kts 53°
2026-04-27 12:06 39.09531 -1.14461 17885 ft 382 kts 54°
2026-04-27 12:06 39.11150 -1.11749 17402 ft 377 kts 54°
2026-04-27 12:07 39.12742 -1.09078 16908 ft 372 kts 54°
2026-04-27 12:07 39.14291 -1.06476 16525 ft 367 kts 54°
2026-04-27 12:07 39.15853 -1.03847 15996 ft 368 kts 54°
2026-04-27 12:07 39.17249 -1.01497 15601 ft 365 kts 54°
2026-04-27 12:08 39.18642 -0.99156 15106 ft 363 kts 54°
2026-04-27 12:08 39.20161 -0.96595 14752 ft 356 kts 54°
2026-04-27 12:08 39.21368 -0.94561 14346 ft 355 kts 55°
2026-04-27 12:08 39.22867 -0.92029 13955 ft 351 kts 55°
2026-04-27 12:09 39.24344 -0.89535 13432 ft 348 kts 55°
2026-04-27 12:09 39.25809 -0.87055 12900 ft 347 kts 55°
2026-04-27 12:09 39.27278 -0.84567 12137 ft 351 kts 55°
2026-04-27 12:09 39.28746 -0.82080 11483 ft 352 kts 54°
2026-04-27 12:10 39.30488 -0.79932 11325 ft 343 kts 34°
2026-04-27 12:10 39.32664 -0.78773 11052 ft 335 kts 13°
2026-04-27 12:10 39.34792 -0.78723 10741 ft 326 kts 351°
2026-04-27 12:10 39.36860 -0.79758 10411 ft 317 kts 327°
2026-04-27 12:11 39.38425 -0.81685 10085 ft 307 kts 310°
2026-04-27 12:11 39.39840 -0.83691 9713 ft 296 kts 319°
2026-04-27 12:11 39.41448 -0.85219 9359 ft 286 kts 333°
2026-04-27 12:11 39.43245 -0.86233 8995 ft 277 kts 345°
2026-04-27 12:12 39.45086 -0.86808 8596 ft 270 kts 353°
2026-04-27 12:12 39.46937 -0.87078 8180 ft 265 kts 359°
2026-04-27 12:12 39.48757 -0.87142 7783 ft 258 kts
2026-04-27 12:12 39.50541 -0.87046 7396 ft 252 kts
2026-04-27 12:13 39.52259 -0.86820 7012 ft 244 kts 11°
2026-04-27 12:13 39.53897 -0.86486 6653 ft 238 kts 14°
2026-04-27 12:13 39.55506 -0.86049 6214 ft 234 kts 17°
2026-04-27 12:13 39.57062 -0.85506 5923 ft 228 kts 20°
2026-04-27 12:14 39.58532 -0.84891 5781 ft 213 kts 24°
2026-04-27 12:14 39.59882 -0.84222 5639 ft 200 kts 26°
2026-04-27 12:14 39.61028 -0.83449 5564 ft 179 kts 47°
2026-04-27 12:14 39.61639 -0.82142 5509 ft 163 kts 72°
2026-04-27 12:15 39.61960 -0.80806 5406 ft 149 kts 77°
2026-04-27 12:15 39.62133 -0.79513 5217 ft 138 kts 89°
2026-04-27 12:15 39.62070 -0.78310 5036 ft 131 kts 101°
2026-04-27 12:15 39.61789 -0.77245 4856 ft 126 kts 120°
2026-04-27 12:16 39.61199 -0.76370 4535 ft 132 kts 136°
2026-04-27 12:16 39.60473 -0.75637 4273 ft 130 kts 143°
2026-04-27 12:16 39.59703 -0.75048 4099 ft 127 kts 148°
2026-04-27 12:16 39.58986 -0.74399 3942 ft 129 kts 130°
2026-04-27 12:17 39.58508 -0.73417 3902 ft 130 kts 117°
2026-04-27 12:17 39.58098 -0.72359 3886 ft 132 kts 115°
2026-04-27 12:17 39.57704 -0.71261 3732 ft 138 kts 114°
2026-04-27 12:17 39.57275 -0.70166 3566 ft 136 kts 117°
2026-04-27 12:18 39.56843 -0.69101 3443 ft 132 kts 115°
2026-04-27 12:18 39.56455 -0.68026 3318 ft 132 kts 114°
2026-04-27 12:18 39.56093 -0.66895 3114 ft 140 kts 113°
2026-04-27 12:18 39.55630 -0.65784 2903 ft 138 kts 118°
2026-04-27 12:19 39.55170 -0.64715 2675 ft 132 kts 115°
2026-04-27 12:19 39.54783 -0.63649 2570 ft 130 kts 113°
2026-04-27 12:19 39.54429 -0.62631 2324 ft 124 kts 113°
2026-04-27 12:19 39.54070 -0.61606 2171 ft 128 kts 114°
2026-04-27 12:20 39.53653 -0.60564 2049 ft 135 kts 117°
2026-04-27 12:20 39.53214 -0.59476 1938 ft 135 kts 115°
2026-04-27 12:20 39.52837 -0.58365 1585 ft 133 kts 114°
2026-04-27 12:20 39.52444 -0.57327 1357 ft 124 kts 116°
2026-04-27 12:21 39.52061 -0.56358 1344 ft 119 kts 117°
2026-04-27 12:21 39.51663 -0.55399 1154 ft 121 kts 115°
2026-04-27 12:21 39.51328 -0.54374 1078 ft 127 kts 116°
2026-04-27 12:21 39.50896 -0.53316 907 ft 136 kts 119°
2026-04-27 12:22 39.50468 -0.52236 675 ft 131 kts 117°
2026-04-27 12:22 39.50094 -0.51203 433 ft 124 kts 116°
2026-04-27 12:22 39.49717 -0.50224 250 ft 117 kts 116°
2026-04-27 12:22 39.49393 -0.49372 213 ft 80 kts 116°
2026-04-27 12:23 39.49211 -0.48896 213 ft 46 kts 116°
2026-04-27 12:23 39.49073 -0.48533 211 ft 44 kts 114°
2026-04-27 12:23 39.48975 -0.48225 216 ft 29 kts 99°
2026-04-27 12:23 39.49003 -0.47975 209 ft 27 kts 78°
2026-04-27 12:24 39.49046 -0.47747 210 ft 25 kts 78°
2026-04-27 12:24 39.49041 -0.47576 210 ft 15 kts 91°
2026-04-27 12:24 39.49083 -0.47505 211 ft 6 kts 45°
2026-04-27 12:24 39.49094 -0.47491 212 ft 0 kts 45°